• In Netherlands
  • List of Countries
  • For 7 days
  • Water Temperature
  • Satellite Maps
  • Weather Map
  • Weather Widgets
  • user-avatar
    Login

    Hourly Weather Biskira

    Today, 25 April, Tuesday

    Time Temperature Precipitation Wind Pressure Humidity
    00:00 +23°C° 0 mm 2 mps 750 mmHg 28%
    01:00 +21°C° 0 mm 2 mps 750 mmHg 31%
    02:00 +21°C° 0 mm 2 mps 750 mmHg 33%
    03:00 +21°C° 0 mm 1 mps 750 mmHg 35%
    04:00 +22°C° 0 mm 1 mps 750 mmHg 35%
    05:00 +22°C° 0 mm 1 mps 750 mmHg 34%
    06:00 +23°C° 0 mm 1 mps 750 mmHg 31%
    07:00 +25°C° 0 mm 1 mps 750 mmHg 28%
    08:00 +26°C° 0 mm 1 mps 750 mmHg 25%
    09:00 +27°C° 0 mm 1 mps 750 mmHg 21%
    10:00 +28°C° 0 mm 1 mps 749 mmHg 20%
    11:00 +29°C° 0 mm 2 mps 749 mmHg 19%
    12:00 +30°C° 0 mm 2 mps 749 mmHg 18%
    13:00 +31°C° 0 mm 2 mps 748 mmHg 18%
    14:00 +31°C° 0 mm 3 mps 748 mmHg 17%
    15:00 +33°C° 0 mm 3 mps 747 mmHg 17%
    16:00 +31°C° 0 mm 3 mps 747 mmHg 18%
    17:00 +30°C° 0 mm 2 mps 747 mmHg 19%
    18:00 +30°C° 0 mm 2 mps 747 mmHg 20%
    19:00 +29°C° 0 mm 2 mps 748 mmHg 21%
    20:00 +28°C° 0 mm 2 mps 748 mmHg 22%
    21:00 +27°C° 0 mm 1 mps 749 mmHg 23%
    22:00 +27°C° 0 mm 2 mps 749 mmHg 26%
    23:00 +26°C° 0 mm 2 mps 748 mmHg 29%

    Tomorrow, 26 April, Wednesday

    Time Temperature Precipitation Wind Pressure Humidity
    00:00 +25°C° 0 mm 3 mps 748 mmHg 31%
    01:00 +24°C° 0 mm 3 mps 748 mmHg 37%
    02:00 +24°C° 0 mm 2 mps 748 mmHg 42%
    03:00 +23°C° 0 mm 2 mps 748 mmHg 47%
    04:00 +23°C° 0 mm 2 mps 748 mmHg 49%
    05:00 +23°C° 0 mm 2 mps 748 mmHg 50%
    06:00 +23°C° 0 mm 2 mps 748 mmHg 51%
    07:00 +24°C° 0 mm 2 mps 749 mmHg 46%
    08:00 +26°C° 0 mm 3 mps 749 mmHg 41%
    09:00 +27°C° 0 mm 3 mps 749 mmHg 36%
    10:00 +29°C° 0 mm 4 mps 749 mmHg 33%
    11:00 +30°C° 0 mm 4 mps 748 mmHg 30%
    12:00 +32°C° 0 mm 4 mps 748 mmHg 26%
    13:00 +33°C° 0 mm 4 mps 748 mmHg 25%
    14:00 +33°C° 0 mm 4 mps 747 mmHg 24%
    15:00 +34°C° 0 mm 4 mps 747 mmHg 22%
    16:00 +33°C° 0 mm 4 mps 747 mmHg 23%
    17:00 +32°C° 0 mm 4 mps 747 mmHg 25%
    18:00 +32°C° 0 mm 4 mps 747 mmHg 26%
    19:00 +30°C° 0.1 mm 4 mps 747 mmHg 28%
    20:00 +29°C° 0.1 mm 4 mps 748 mmHg 29%
    21:00 +28°C° 0.1 mm 4 mps 748 mmHg 31%
    22:00 +28°C° 0.1 mm 4 mps 748 mmHg 32%
    23:00 +27°C° 0.1 mm 4 mps 748 mmHg 33%

    Day after tomorrow, 27 April, Thursday

    Time Temperature Precipitation Wind Pressure Humidity
    00:00 +27°C° 0.1 mm 3 mps 748 mmHg 33%
    01:00 +26°C° 0.1 mm 4 mps 748 mmHg 35%
    02:00 +26°C° 0.1 mm 4 mps 747 mmHg 36%
    03:00 +26°C° 0.1 mm 4 mps 747 mmHg 37%
    04:00 +25°C° 0 mm 5 mps 747 mmHg 38%
    05:00 +25°C° 0 mm 5 mps 747 mmHg 38%
    06:00 +24°C° 0 mm 6 mps 747 mmHg 39%
    07:00 +27°C° 0 mm 6 mps 747 mmHg 36%
    08:00 +28°C° 0 mm 7 mps 748 mmHg 33%
    09:00 +30°C° 0 mm 7 mps 748 mmHg 30%
    10:00 +32°C° 0 mm 7 mps 748 mmHg 27%
    11:00 +33°C° 0 mm 7 mps 747 mmHg 24%
    12:00 +35°C° 0 mm 7 mps 747 mmHg 20%
    13:00 +35°C° 0 mm 7 mps 746 mmHg 18%
    14:00 +36°C° 0 mm 7 mps 746 mmHg 16%
    15:00 +38°C° 0 mm 7 mps 745 mmHg 14%
    16:00 +38°C° 0 mm 6 mps 745 mmHg 15%
    17:00 +36°C° 0 mm 6 mps 745 mmHg 15%
    18:00 +35°C° 0 mm 5 mps 744 mmHg 16%
    19:00 +34°C° 0 mm 6 mps 745 mmHg 18%
    20:00 +33°C° 0 mm 6 mps 746 mmHg 20%
    21:00 +32°C° 0 mm 6 mps 746 mmHg 21%
    22:00 +30°C° 0 mm 6 mps 746 mmHg 26%
    23:00 +29°C° 0 mm 6 mps 746 mmHg 30%

    28 April, Friday

    Time Temperature Precipitation Wind Pressure Humidity
    00:00 +27°C° 0 mm 6 mps 747 mmHg 34%
    01:00 +26°C° 0 mm 6 mps 747 mmHg 38%
    02:00 +24°C° 0 mm 6 mps 746 mmHg 42%
    03:00 +23°C° 0 mm 6 mps 746 mmHg 46%
    04:00 +23°C° 0 mm 6 mps 746 mmHg 45%
    05:00 +23°C° 0 mm 6 mps 746 mmHg 45%
    06:00 +23°C° 0 mm 5 mps 747 mmHg 45%
    07:00 +26°C° 0 mm 5 mps 747 mmHg 39%
    08:00 +28°C° 0 mm 5 mps 747 mmHg 33%
    09:00 +30°C° 0 mm 4 mps 747 mmHg 27%
    10:00 +32°C° 0 mm 4 mps 747 mmHg 24%
    11:00 +34°C° 0 mm 3 mps 746 mmHg 22%
    12:00 +35°C° 0 mm 3 mps 746 mmHg 19%
    13:00 +35°C° 0 mm 3 mps 745 mmHg 18%
    14:00 +36°C° 0 mm 3 mps 745 mmHg 17%
    15:00 +36°C° 0 mm 3 mps 744 mmHg 16%
    16:00 +35°C° 0 mm 3 mps 744 mmHg 18%
    17:00 +34°C° 0 mm 3 mps 745 mmHg 20%
    18:00 +34°C° 0 mm 3 mps 745 mmHg 22%
    19:00 +31°C° 0 mm 3 mps 745 mmHg 27%
    20:00 +30°C° 0 mm 4 mps 746 mmHg 32%
    21:00 +28°C° 0 mm 4 mps 747 mmHg 36%
    22:00 +27°C° 0.1 mm 5 mps 747 mmHg 42%
    23:00 +26°C° 0.1 mm 5 mps 747 mmHg 47%

    29 April, Saturday

    Time Temperature Precipitation Wind Pressure Humidity
    00:00 +24°C° 0.1 mm 6 mps 747 mmHg 53%
    01:00 +23°C° 0 mm 5 mps 747 mmHg 53%
    02:00 +23°C° 0 mm 4 mps 747 mmHg 54%
    03:00 +22°C° 0 mm 3 mps 747 mmHg 54%
    04:00 +24°C° 0.1 mm 2 mps 747 mmHg 53%
    05:00 +24°C° 0.1 mm 2 mps 748 mmHg 53%
    06:00 +24°C° 0.1 mm 2 mps 748 mmHg 52%
    07:00 +24°C° 0.3 mm 3 mps 748 mmHg 53%
    08:00 +24°C° 0.3 mm 3 mps 749 mmHg 53%
    09:00 +25°C° 0.3 mm 4 mps 749 mmHg 54%
    10:00 +26°C° 0 mm 3 mps 749 mmHg 48%
    11:00 +28°C° 0 mm 3 mps 748 mmHg 42%
    12:00 +29°C° 0 mm 2 mps 748 mmHg 36%
    13:00 +30°C° 0 mm 3 mps 748 mmHg 33%
    14:00 +31°C° 0 mm 3 mps 747 mmHg 31%
    15:00 +32°C° 0 mm 4 mps 747 mmHg 28%
    16:00 +31°C° 0 mm 3 mps 747 mmHg 29%
    17:00 +31°C° 0 mm 2 mps 747 mmHg 30%
    18:00 +31°C° 0 mm 1 mps 747 mmHg 30%
    19:00 +30°C° 0 mm 2 mps 748 mmHg 32%
    20:00 +29°C° 0 mm 2 mps 748 mmHg 34%
    21:00 +28°C° 0 mm 2 mps 749 mmHg 36%
    22:00 +27°C° 0 mm 2 mps 749 mmHg 38%
    23:00 +27°C° 0 mm 2 mps 749 mmHg 40%

    30 April, Sunday

    Time Temperature Precipitation Wind Pressure Humidity
    00:00 +26°C° 0 mm 2 mps 749 mmHg 41%
    01:00 +25°C° 0.2 mm 2 mps 749 mmHg 44%
    02:00 +25°C° 0.2 mm 2 mps 749 mmHg 47%
    03:00 +24°C° 0.2 mm 2 mps 749 mmHg 49%
    04:00 +24°C° 0.3 mm 2 mps 750 mmHg 52%
    05:00 +24°C° 0.3 mm 3 mps 750 mmHg 55%
    06:00 +22°C° 0.3 mm 3 mps 750 mmHg 58%
    07:00 +25°C° 0.1 mm 3 mps 750 mmHg 52%
    08:00 +26°C° 0.1 mm 2 mps 751 mmHg 47%
    09:00 +27°C° 0.1 mm 2 mps 751 mmHg 42%
    10:00 +28°C° 0 mm 3 mps 750 mmHg 39%
    11:00 +29°C° 0 mm 3 mps 750 mmHg 35%
    12:00 +31°C° 0 mm 3 mps 749 mmHg 32%
    13:00 +31°C° 0.1 mm 3 mps 749 mmHg 31%
    14:00 +32°C° 0.1 mm 2 mps 749 mmHg 29%
    15:00 +32°C° 0.1 mm 2 mps 748 mmHg 28%
    16:00 +32°C° 0.1 mm 2 mps 749 mmHg 29%
    17:00 +31°C° 0.1 mm 2 mps 749 mmHg 30%
    18:00 +31°C° 0.1 mm 2 mps 749 mmHg 32%
    19:00 +30°C° 0.3 mm 2 mps 750 mmHg 34%
    20:00 +29°C° 0.3 mm 2 mps 750 mmHg 37%
    21:00 +29°C° 0.3 mm 3 mps 751 mmHg 40%
    22:00 +28°C° 0 mm 3 mps 751 mmHg 43%
    23:00 +27°C° 0 mm 4 mps 751 mmHg 47%
    Show more